SIT-2086

Last updated on Sun Apr 12 2026 00:03:15 GMT+0000 (Coordinated Universal Time)

1 61764U 24199AF 26101.48451105 .00022219 00000+0 40525-3 0 9991 2 61764 97.3068 336.8654 0007594 142.3148 217.8637 15.49426203124098
UTC large
Height (km)
Speed (km/s)
/
Latitude / Longitude
Inclination (degrees)
Orbital Period (minutes)
Azimuth
Elevation
Range (km)
Doppler Factor

Next 0 passes for location: London (51.5072 / 0.1276)

Sorry there are no passes over London.
SIT-2086